Tracking 17142 objects as of 27-May-2015
HD Live streaming from Space Station

SL-16 DEB

Track SL-16 DEB now!
10-day predictions
SL-16 DEB is classified as:


NORAD ID: 24303
Int'l Code: 1996-051G
Perigee: 822.6 km
Apogee: 924.1 km
Inclination: 71.1 °
Period: 102.3 minutes
Semi major axis: 7244 km
RCS: 0.4797 m2 (medium)
Launch date: September 4, 1996
Source: Commonwealth of Independent States (former USSR) (CIS)

Note: This is SATELLITE DEBRIS
Your satellite tracking list
Your tracking list is empty





NASA's NSSDC Master Catalog

Two Line Element Set (TLE):
1 24303U 96051G   15147.11960417  .00000290  00000-0  19292-3 0  9997
2 24303 071.1067 093.1780 0070029 017.3206 070.4265 14.08004223962376

Source of the keplerian elements: AFSPC

N2YO: 372